When you browse on this site, cookies collect data to enhance your experience and personalize the content and advertising you see.
Visit our Privacy Policy to learn more. By continuing to use the site, you agree to this use of cookies and data.
  • In Spain
  • List of Countries
  • For 7 days
  • Water Temperature
  • Weather Map
  • Weather Widgets
  • user-avatar
    Login

    Hourly Weather Makove

    Today, 14 October, Monday

    Time Temperature Precipitation Wind Pressure Humidity
    00:00 +12°C° 0 mm 3 mps 752 mmHg 85%
    01:00 +12°C° 0 mm 3 mps 753 mmHg 87%
    02:00 +12°C° 0 mm 3 mps 753 mmHg 90%
    03:00 +12°C° 0 mm 3 mps 752 mmHg 89%
    04:00 +12°C° 0 mm 2 mps 752 mmHg 89%
    05:00 +12°C° 0 mm 2 mps 752 mmHg 88%
    06:00 +13°C° 0 mm 2 mps 752 mmHg 84%
    07:00 +14°C° 0 mm 2 mps 753 mmHg 80%
    08:00 +14°C° 0 mm 3 mps 753 mmHg 76%
    09:00 +17°C° 0 mm 3 mps 753 mmHg 66%
    10:00 +19°C° 0 mm 3 mps 753 mmHg 57%
    11:00 +21°C° 0 mm 4 mps 753 mmHg 48%
    12:00 +22°C° 0 mm 4 mps 753 mmHg 46%
    13:00 +22°C° 0 mm 4 mps 752 mmHg 44%
    14:00 +23°C° 0 mm 4 mps 752 mmHg 41%
    15:00 +22°C° 0 mm 3 mps 752 mmHg 45%
    16:00 +21°C° 0 mm 3 mps 751 mmHg 49%
    17:00 +19°C° 0 mm 2 mps 751 mmHg 53%
    18:00 +18°C° 0 mm 3 mps 751 mmHg 56%
    19:00 +17°C° 0 mm 3 mps 751 mmHg 60%
    20:00 +17°C° 0 mm 3 mps 751 mmHg 63%
    21:00 +16°C° 0 mm 3 mps 751 mmHg 67%
    22:00 +14°C° 0 mm 3 mps 751 mmHg 72%
    23:00 +14°C° 0 mm 3 mps 751 mmHg 76%

    Tomorrow, 15 October, Tuesday

    Time Temperature Precipitation Wind Pressure Humidity
    00:00 +13°C° 0 mm 3 mps 751 mmHg 78%
    01:00 +13°C° 0 mm 3 mps 751 mmHg 80%
    02:00 +14°C° 0 mm 2 mps 751 mmHg 83%
    03:00 +13°C° 0 mm 2 mps 751 mmHg 84%
    04:00 +13°C° 0 mm 2 mps 751 mmHg 85%
    05:00 +13°C° 0 mm 2 mps 750 mmHg 87%
    06:00 +14°C° 0 mm 2 mps 751 mmHg 82%
    07:00 +15°C° 0 mm 1 mps 751 mmHg 77%
    08:00 +15°C° 0 mm 1 mps 751 mmHg 73%
    09:00 +17°C° 0 mm 2 mps 751 mmHg 64%
    10:00 +19°C° 0 mm 2 mps 751 mmHg 56%
    11:00 +21°C° 0 mm 2 mps 751 mmHg 48%
    12:00 +23°C° 0 mm 2 mps 751 mmHg 44%
    13:00 +24°C° 0 mm 2 mps 751 mmHg 40%
    14:00 +24°C° 0 mm 2 mps 751 mmHg 36%
    15:00 +23°C° 0 mm 1 mps 750 mmHg 39%
    16:00 +22°C° 0 mm 1 mps 750 mmHg 42%
    17:00 +20°C° 0 mm 1 mps 750 mmHg 44%
    18:00 +20°C° 0 mm 1 mps 750 mmHg 45%
    19:00 +19°C° 0 mm 1 mps 750 mmHg 46%
    20:00 +18°C° 0 mm 1 mps 750 mmHg 46%
    21:00 +16°C° 0 mm 1 mps 750 mmHg 47%
    22:00 +16°C° 0 mm 1 mps 751 mmHg 47%
    23:00 +14°C° 0 mm 0 mps 751 mmHg 48%

    Day after tomorrow, 16 October, Wednesday

    Time Temperature Precipitation Wind Pressure Humidity
    00:00 +15°C° 0 mm 1 mps 751 mmHg 49%
    01:00 +15°C° 0 mm 1 mps 751 mmHg 50%
    02:00 +14°C° 0 mm 1 mps 751 mmHg 52%
    03:00 +14°C° 0 mm 1 mps 751 mmHg 53%
    04:00 +14°C° 0 mm 1 mps 751 mmHg 55%
    05:00 +13°C° 0 mm 1 mps 751 mmHg 57%
    06:00 +14°C° 0 mm 1 mps 751 mmHg 56%
    07:00 +15°C° 0 mm 1 mps 751 mmHg 54%
    08:00 +16°C° 0 mm 2 mps 751 mmHg 53%
    09:00 +18°C° 0 mm 2 mps 751 mmHg 49%
    10:00 +20°C° 0 mm 2 mps 751 mmHg 44%
    11:00 +22°C° 0 mm 3 mps 751 mmHg 40%
    12:00 +22°C° 0 mm 3 mps 751 mmHg 37%
    13:00 +24°C° 0 mm 3 mps 751 mmHg 34%
    14:00 +25°C° 0 mm 3 mps 750 mmHg 31%
    15:00 +23°C° 0 mm 2 mps 750 mmHg 34%
    16:00 +21°C° 0 mm 2 mps 750 mmHg 38%
    17:00 +19°C° 0 mm 2 mps 750 mmHg 41%
    18:00 +18°C° 0 mm 2 mps 750 mmHg 44%
    19:00 +17°C° 0 mm 2 mps 750 mmHg 47%
    20:00 +17°C° 0 mm 2 mps 750 mmHg 50%
    21:00 +16°C° 0 mm 2 mps 750 mmHg 52%
    22:00 +15°C° 0 mm 1 mps 750 mmHg 55%
    23:00 +15°C° 0 mm 1 mps 750 mmHg 57%

    17 October, Thursday

    Time Temperature Precipitation Wind Pressure Humidity
    00:00 +14°C° 0 mm 1 mps 750 mmHg 59%
    01:00 +14°C° 0 mm 1 mps 750 mmHg 61%
    02:00 +13°C° 0 mm 1 mps 750 mmHg 63%
    03:00 +13°C° 0 mm 1 mps 750 mmHg 63%
    04:00 +13°C° 0 mm 1 mps 750 mmHg 64%
    05:00 +12°C° 0 mm 1 mps 750 mmHg 64%
    06:00 +13°C° 0 mm 1 mps 750 mmHg 60%
    07:00 +15°C° 0 mm 1 mps 750 mmHg 56%
    08:00 +16°C° 0 mm 1 mps 750 mmHg 53%
    09:00 +19°C° 0 mm 1 mps 750 mmHg 47%
    10:00 +20°C° 0 mm 1 mps 750 mmHg 41%
    11:00 +22°C° 0 mm 1 mps 751 mmHg 35%
    12:00 +23°C° 0 mm 1 mps 750 mmHg 32%
    13:00 +24°C° 0 mm 1 mps 750 mmHg 30%
    14:00 +24°C° 0 mm 1 mps 750 mmHg 28%
    15:00 +23°C° 0 mm 1 mps 749 mmHg 31%
    16:00 +21°C° 0 mm 1 mps 749 mmHg 34%
    17:00 +18°C° 0 mm 0 mps 749 mmHg 37%
    18:00 +17°C° 0 mm 0 mps 749 mmHg 39%
    19:00 +16°C° 0 mm 0 mps 749 mmHg 41%
    20:00 +16°C° 0 mm 0 mps 749 mmHg 43%
    21:00 +15°C° 0 mm 0 mps 749 mmHg 44%
    22:00 +16°C° 0 mm 1 mps 749 mmHg 46%
    23:00 +15°C° 0 mm 1 mps 749 mmHg 47%

    18 October, Friday

    Time Temperature Precipitation Wind Pressure Humidity
    00:00 +15°C° 0 mm 1 mps 749 mmHg 48%
    01:00 +15°C° 0 mm 1 mps 749 mmHg 49%
    02:00 +14°C° 0 mm 1 mps 749 mmHg 50%
    03:00 +14°C° 0 mm 1 mps 749 mmHg 51%
    04:00 +14°C° 0 mm 1 mps 750 mmHg 53%
    05:00 +13°C° 0 mm 2 mps 750 mmHg 54%
    06:00 +14°C° 0 mm 2 mps 750 mmHg 53%
    07:00 +15°C° 0 mm 2 mps 750 mmHg 52%
    08:00 +15°C° 0 mm 2 mps 750 mmHg 51%
    09:00 +17°C° 0 mm 2 mps 750 mmHg 47%
    10:00 +19°C° 0 mm 2 mps 751 mmHg 44%
    11:00 +21°C° 0 mm 2 mps 751 mmHg 40%
    12:00 +21°C° 0 mm 2 mps 751 mmHg 39%
    13:00 +23°C° 0 mm 2 mps 750 mmHg 38%
    14:00 +24°C° 0 mm 2 mps 750 mmHg 37%
    15:00 +21°C° 0 mm 2 mps 750 mmHg 43%
    16:00 +20°C° 0 mm 3 mps 750 mmHg 48%
    17:00 +18°C° 0 mm 3 mps 750 mmHg 54%
    18:00 +17°C° 0 mm 3 mps 750 mmHg 59%
    19:00 +17°C° 0 mm 3 mps 751 mmHg 65%
    20:00 +16°C° 0 mm 3 mps 751 mmHg 70%
    21:00 +14°C° 0 mm 3 mps 751 mmHg 71%
    22:00 +15°C° 0 mm 2 mps 751 mmHg 73%
    23:00 +14°C° 0 mm 2 mps 751 mmHg 74%

    19 October, Saturday

    Time Temperature Precipitation Wind Pressure Humidity
    00:00 +14°C° 0 mm 2 mps 751 mmHg 75%
    01:00 +14°C° 0 mm 2 mps 751 mmHg 76%
    02:00 +13°C° 0 mm 2 mps 751 mmHg 78%
    03:00 +13°C° 0 mm 2 mps 751 mmHg 78%
    04:00 +13°C° 0 mm 2 mps 752 mmHg 79%
    05:00 +12°C° 0 mm 2 mps 752 mmHg 79%
    06:00 +13°C° 0 mm 2 mps 752 mmHg 76%
    07:00 +14°C° 0 mm 2 mps 752 mmHg 73%
    08:00 +14°C° 0 mm 2 mps 752 mmHg 69%
    09:00 +16°C° 0 mm 2 mps 752 mmHg 62%
    10:00 +18°C° 0 mm 2 mps 752 mmHg 55%
    11:00 +20°C° 0 mm 3 mps 753 mmHg 48%
    12:00 +20°C° 0 mm 3 mps 752 mmHg 46%
    13:00 +21°C° 0 mm 3 mps 752 mmHg 43%
    14:00 +21°C° 0 mm 2 mps 752 mmHg 41%
    15:00 +20°C° 0 mm 2 mps 752 mmHg 45%
    16:00 +19°C° 0 mm 2 mps 752 mmHg 49%
    17:00 +18°C° 0 mm 2 mps 751 mmHg 53%
    18:00 +17°C° 0 mm 2 mps 752 mmHg 58%
    19:00 +16°C° 0 mm 3 mps 752 mmHg 62%
    20:00 +14°C° 0 mm 3 mps 752 mmHg 67%
    21:00 +14°C° 0 mm 3 mps 752 mmHg 69%
    22:00 +13°C° 0 mm 3 mps 752 mmHg 71%
    23:00 +13°C° 0 mm 3 mps 752 mmHg 73%
    Show more